Volver al catálogo

STARLINK-11674

ActivoComunicacionesVLEO
NORAD 64327·PAYLOAD·🇺🇸 United States

Lanzado Jun 10, 2025 desde Cape Canaveral Space Force Station

Loading…

Próximos Pases (próximas 24 horas)

TLE

ActualizadoSource: CelesTrak SupGP

Época: Sep 15, 2026, 03:51 UTC

1 64327C 25124L   26258.16090278  .00051246  00000+0  39810-3 0  2581
2 64327  43.0000 326.8347 0001508 264.4688 206.9638 15.70808823    13

Sigue STARLINK-11674 en tiempo real con AllMySat

Download on the App Store